Baltimore, MD

1:01 AM EST on January 24, 2018 (GMT -0500)
Baltimore-Washington International

Weather History for KBWI - June, 2014

Change the Weather History Date:

Monday, June 9, 2014

  Actual Average Record
Temperature  
Mean Temperature 74 °F 71 °F  
Max Temperature 81 °F 81 °F 100 °F (2011)
Min Temperature 67 °F 60 °F 45 °F (1997)
Degree Days  
Heating Degree Days 0 1  
Month to date heating degree days 2 11  
Since 1 June heating degree days 2 11  
Since 1 July heating degree days 5006 4760  
Cooling Degree Days 9 6  
Month to date cooling degree days 52 49  
Year to date cooling degree days 137 133  
Since 1 June cooling degree days 52 49  
Growing Degree Days 24 (Base 50)    
Moisture  
Dew Point 67 °F    
Average Humidity 78    
Maximum Humidity 93    
Minimum Humidity 62    
Precipitation  
Precipitation 0.17 in 0.12 in 2.06 in (1881)
Month to date precipitation 0.71 1.12  
Year to date precipitation 24.33 18.15  
Snow  
Snow 0.00 in 0.00 in - ()
Month to date snowfall 0.0 0.0  
Since 1 July snowfall 39.0 20.1  
Snow Depth 0.00 in    
Sea Level Pressure  
Sea Level Pressure 29.87 in    
Wind  
Wind Speed 3 mph (SSE)    
Max Wind Speed 10 mph    
Max Gust Speed 14 mph    
Visibility 8 miles    
Events Rain    
T = Trace of Precipitation, MM = Missing Value Source: NWS Daily Summary

Daily Weather History Graph

Daily Weather History Graph

Search for Another Location

Airport or City:

Trip Planner

Search our weather history database for the weather conditions in past years. The results will help you decide how hot, cold, wet, or windy it might be!

Date:

Astronomy

Jun. 09, 2014 Rise Set
Actual Time 5:40 AM EDT 8:31 PM EDT
Civil Twilight 5:08 AM EDT 9:03 PM EDT
Nautical Twilight 4:27 AM EDT 9:44 PM EDT
Astronomical Twilight 3:41 AM EDT 10:30 PM EDT
Moon 4:52 PM EDT (6/9) 3:04 AM EDT (6/9)
Length of Visible Light 15h 55m
Length of Day
14h 51m
Waxing Gibbous, 85% of the Moon is Illuminated
Jun 9
Waxing Gibbous
Jun 13
Full
Jun 19
Last Quarter
Jun 27
New
Jul 5
First Quarter

Hourly Weather History & Observations

Time (EDT) Temp. Heat Index Dew Point Humidity Pressure Visibility Wind Dir Wind Speed Gust Speed Precip Events Conditions
12:54 AM 70.0 °F - 64.9 °F 84% 29.86 in 10.0 mi SW 3.5 mph - 0.00 in   Overcast
1:54 AM 68.0 °F - 64.9 °F 90% 29.86 in 6.0 mi WSW 4.6 mph - 0.01 in Rain Light Rain
2:54 AM 66.9 °F - 64.9 °F 93% 29.84 in 7.0 mi SSE 3.5 mph - 0.16 in Rain Light Rain
3:54 AM 66.9 °F - 66.0 °F 97% 29.84 in 9.0 mi Calm Calm - 0.00 in   Overcast
4:54 AM 68.0 °F - 66.0 °F 93% 29.84 in 9.0 mi Calm Calm - N/A   Overcast
5:54 AM 68.0 °F - 66.0 °F 93% 29.85 in 5.0 mi Calm Calm - 0.00 in   Mostly Cloudy
6:54 AM 68.0 °F - 66.9 °F 96% 29.86 in 4.0 mi Calm Calm - N/A   Mostly Cloudy
7:54 AM 70.0 °F - 66.9 °F 90% 29.88 in 5.0 mi Calm Calm - N/A   Mostly Cloudy
8:03 AM 71.6 °F - 66.2 °F 83% 29.89 in 5.0 mi WSW 3.5 mph - N/A   Mostly Cloudy
8:54 AM 72.0 °F - 68.0 °F 87% 29.89 in 6.0 mi Calm Calm - N/A   Mostly Cloudy
9:54 AM 73.9 °F - 68.0 °F 82% 29.89 in 8.0 mi Calm Calm - N/A   Mostly Cloudy
10:31 AM 78.8 °F - 68.0 °F 69% 29.90 in 10.0 mi Calm Calm - N/A   Mostly Cloudy
10:54 AM 77.0 °F - 68.0 °F 74% 29.89 in 10.0 mi Calm Calm - N/A   Mostly Cloudy
11:42 AM 78.8 °F - 68.0 °F 69% 29.90 in 10.0 mi Calm Calm - N/A   Overcast
11:54 AM 78.1 °F - 66.9 °F 68% 29.90 in 10.0 mi Calm Calm - N/A   Mostly Cloudy
12:41 PM 78.8 °F - 68.0 °F 69% 29.89 in 10.0 mi ESE 10.4 mph - N/A   Mostly Cloudy
12:54 PM 79.0 °F - 69.1 °F 72% 29.88 in 9.0 mi ESE 8.1 mph - N/A   Mostly Cloudy
1:54 PM 81.0 °F 83.8 °F 68.0 °F 65% 29.88 in 10.0 mi ESE 8.1 mph - N/A   Scattered Clouds
4:54 PM 81.0 °F 83.8 °F 68.0 °F 65% 29.86 in 10.0 mi SSE 9.2 mph - N/A   Mostly Cloudy
5:54 PM 81.0 °F 83.8 °F 68.0 °F 65% 29.86 in 10.0 mi SSE 4.6 mph - N/A   Mostly Cloudy
6:54 PM 79.0 °F - 66.9 °F 66% 29.86 in 10.0 mi SSE 6.9 mph - N/A   Mostly Cloudy
7:54 PM 78.1 °F - 66.9 °F 68% 29.87 in 10.0 mi ESE 4.6 mph - N/A   Mostly Cloudy
8:54 PM 75.9 °F - 68.0 °F 76% 29.87 in 10.0 mi SE 4.6 mph - N/A   Mostly Cloudy
9:54 PM 75.0 °F - 66.9 °F 76% 29.88 in 10.0 mi SE 5.8 mph - N/A   Mostly Cloudy
10:54 PM 73.9 °F - 68.0 °F 82% 29.88 in 10.0 mi SE 3.5 mph - N/A   Mostly Cloudy
11:54 PM 73.0 °F - 68.0 °F 84% 29.89 in 10.0 mi Calm Calm - N/A   Scattered Clouds